Regional Weather Roundup
Issued by NWS Kansas City/Pleasant Hill, MO

Home | Current Version | Previous Version | Text Only | Print | Product List | Glossary On
Versions: 1 2 3 4 5 6 7 8 9 10 11 12 13 14 15 16 17 18 19 20 21 22 23 24 25 26 27 28 29 30 31 32 33 34 35 36 37 38 39 40 41 42 43 44 45 46 47 48 49 50
000
ASUS43 KEAX 070511
RWREAX

WEATHER ROUNDUP FOR EASTERN KANSAS AND NORTHWEST MISSOURI
NATIONAL WEATHER SERVICE KANSAS CITY/PLEASANT HILL MO
1100 PM CST FRI MAR 06 2015

KSZ040-057-103>105-MOZ028-029-037-043-070600-
...KANSAS CITY METROPOLITAN AREA...

CITY           SKY/WX    TMP DP  RH WIND       PRES   REMARKS
K.C. INTL      CLEAR     46  28  49 SW16      30.20F
K.C. DOWNTOWN  CLEAR     50  27  40 SW16      30.21F
LEES SUMMIT    CLEAR     42  27  55 SW10      30.23S
OLATHE - IXD   CLEAR     44  28  53 S17       30.24S
OLATHE - OJC   CLEAR     42  27  55 S7        30.23S
LAWRENCE       CLEAR     46  28  49 SW16      30.22S

$$

MOZ001>008-011>017-020>025-030>033-038>040-044>046-053-054-070600-
...NORTHERN AND CENTRAL MISSOURI...

CITY           SKY/WX    TMP DP  RH WIND       PRES   REMARKS
ST. JOSEPH     CLEAR     42  27  55 SW12      30.18S
MOSBY          CLEAR     46  28  49 SW9       30.21F
WARRENSBURG    CLEAR     41  30  65 S12G17    30.25F WCI  34
WHITEMAN AFB   CLEAR     41  29  63 SW15      30.25S WCI  33
CLINTON        CLEAR     43  30  61 SW7       30.29F
SEDALIA        CLEAR     43  28  55 SW14      30.27S
WARSAW         NOT AVBL
MARSHALL       CLEAR     45  32  61 SW14      30.25S
CHILLICOTHE      N/A     42  29  59 S6        30.19F
MOBERLY        CLEAR     43  28  56 SW16G22   30.23F
KIRKSVILLE     CLEAR     42  31  64 SW12      30.18F

$$

MOZ041-047>049-056>058-063>065-088>090-097-070600-
...EASTERN AND SOUTHERN MISSOURI...

CITY           SKY/WX    TMP DP  RH WIND       PRES   REMARKS
ST. LOUIS INTL CLEAR     37  22  54 S7        30.31S WCI  32
SPIRIT OF STL  CLEAR     40  24  53 SW9       30.30S WCI  34
COLUMBIA       CLEAR     41  28  60 SW14      30.27S WCI  33
JEFFERSON CITY CLEAR     44  26  49 S7        30.29F
MEXICO         CLEAR     43  34  70 SW12      30.25F
HANNIBAL       CLEAR     45  27  49 SW12G20   30.20F
ROLLA          CLEAR     37  25  61 S12       30.30S WCI  29
OSAGE BEACH    CLEAR     43  25  49 SW10      30.31S
SPRINGFIELD    CLEAR     36  25  64 S10       30.34S WCI  28
BRANSON        CLEAR     39  25  56 SW8       30.38S WCI  34
NEVADA         CLEAR     39  28  65 S15       30.31F WCI  31
JOPLIN         CLEAR     42  25  50 MISG      30.34F
WEST PLAINS    CLEAR     34  22  61 SW8       30.38S WCI  27

$$

IAZ060-094-KSZ022-034>040-054-083-096-NEZ052-066-093-070600-
...KANSAS...SOUTHEAST NEBRASKA AND IOWA...

CITY           SKY/WX    TMP DP  RH WIND       PRES   REMARKS
TOPEKA         CLEAR     47  27  45 SW12      30.22S
MANHATTAN      CLEAR     43  29  57 SW13      30.19F
EMPORIA        CLEAR     45  29  53 SW21G30   30.23F
CHANUTE        CLEAR     41  27  57 S12       30.30S WCI  34
WICHITA        CLEAR     43  30  60 S12       30.27S
OMAHA          CLOUDY    38  23  55 CALM      30.11S
LINCOLN        CLEAR     31  19  61 CALM      30.14S
FALLS CITY     CLEAR     46  23  40 SW13      30.14F
LAMONI         PTCLDY    40  24  53 SW13      30.12F WCI  32
DES MOINES     CLOUDY    44  24  45 CALM      30.12S

$$




USA.gov is the U.S. government's official web portal to all federal, state and local government web resources and services.